Home > Weather > Halmstad > Past weeks

Flag for Sweden Past Weather in Halmstad, Sweden — Yesterday and Last 2 Weeks

Now
63 °F

Passing clouds.


Feels Like: 63 °F
Forecast: 59 / 63 °F
Wind: 7 mph from Southeast

Location: Halmstad Swedish Air Force Base

Current Time: Aug 29, 2016 at 12:36:54 AM

Latest Report: Aug 28, 2016 at 11:50 PM


Visibility: N/A

Pressure: 29.77 "Hg

Humidity: 94%

Dew Point: 61 °F

Location of HalmstadLocation

Past Weather in Halmstad — Graph

°F

Halmstad Temperature Yesterday

Maximum temperature yesterday: 64 °F (at 1:20 PM)
Minimum temperature yesterday: 54 °F (at 1:20 AM)
Average temperature yesterday: 59 °F

High & Low Weather Summary for the Past Weeks

 TemperatureHumidityPressure
High81 °F (Aug 26, 2:50 PM)100% (Aug 15, 2:20 AM)30.33 "Hg (Aug 15, 2:20 AM)
Low48 °F (Aug 16, 2:20 AM)43% (Aug 16, 4:50 PM)29.80 "Hg (Aug 18, 9:50 AM)
Average62 °F81%30.03 "Hg
* Reported Aug 13 11:20 PM — Aug 28 11:20 PM, Halmstad, Weather by CustomWeather, © 2016

Note: Actual official high and low records may vary slightly from our data, if they occured in-between our weather recording intervals... More about our weather records

Advertising

Halmstad Weather History for the Previous 24 Hours

Scroll right to see more
 ConditionsComfort  
Time TempWeatherWind HumidityBarometerVisibility
11:20 PM
Sun, Aug 28
63 °FPassing clouds.8 mph94%29.80 "HgN/A
10:50 PM63 °FPassing clouds.9 mph94%29.80 "HgN/A
10:20 PM63 °FPassing clouds.9 mph88%29.80 "HgN/A
9:50 PM63 °FPassing clouds.9 mph88%29.80 "HgN/A
9:20 PM63 °FPassing clouds.8 mph88%29.83 "HgN/A
8:50 PM63 °FMild.9 mph88%29.80 "HgN/A
8:20 PM63 °FSunny.9 mph88%29.80 "Hg10 mi
7:50 PM64 °FSunny.10 mph83%29.83 "Hg10 mi
7:20 PM64 °FPassing clouds.8 mph83%29.83 "HgN/A
6:50 PM64 °FPassing clouds.8 mph78%29.83 "HgN/A
6:20 PM64 °FSunny.8 mph83%29.86 "Hg10 mi
5:50 PM64 °FSunny.10 mph83%29.86 "Hg10 mi
5:20 PM64 °FRain. Passing clouds.9 mph83%29.86 "HgN/A
4:50 PM64 °FPassing clouds.7 mph83%29.89 "HgN/A
4:20 PM63 °FPassing clouds.7 mph88%29.92 "HgN/A
3:50 PM63 °FRain. Passing clouds.7 mph88%29.92 "HgN/A
3:20 PM64 °FPassing clouds.7 mph78%29.95 "HgN/A
2:50 PM64 °FPassing clouds.9 mph78%29.92 "HgN/A
2:20 PM64 °FPassing clouds.9 mph78%29.92 "HgN/A
1:50 PM64 °FPassing clouds.10 mph78%29.92 "HgN/A
1:20 PM64 °FPassing clouds.12 mph78%29.92 "HgN/A
12:50 PM61 °FPartly sunny.12 mph83%29.95 "HgN/A
12:20 PM61 °FPassing clouds.12 mph77%29.95 "HgN/A
11:50 AM61 °FPartly sunny.10 mph77%29.95 "HgN/A
11:20 AM59 °FScattered clouds.10 mph82%29.98 "HgN/A
10:50 AM59 °FPassing clouds.12 mph82%29.98 "HgN/A
10:20 AM59 °FScattered clouds.10 mph82%29.98 "HgN/A
9:50 AM59 °FPartly sunny.10 mph82%30.01 "HgN/A
9:20 AM57 °FScattered clouds.7 mph88%30.01 "HgN/A
8:50 AM55 °FPassing clouds.9 mph94%30.01 "HgN/A
8:20 AM55 °FScattered clouds.6 mph94%30.04 "HgN/A
7:50 AM55 °FLight rain. Cloudy.14 mph94%30.01 "HgN/A
7:20 AM55 °FRain. Passing clouds.7 mph94%30.09 "Hg6 mi
6:50 AM55 °FLight rain. Overcast.5 mph94%30.09 "HgN/A
6:20 AM54 °FRain. Passing clouds.5 mph100%30.12 "Hg4 mi
5:50 AM54 °FPassing clouds.5 mph94%30.07 "HgN/A
5:20 AM54 °FPassing clouds.6 mph94%30.07 "HgN/A
4:50 AM54 °FPassing clouds.5 mph94%30.07 "HgN/A
4:20 AM54 °FPassing clouds.5 mph94%30.07 "HgN/A
3:50 AM54 °FPassing clouds.7 mph94%30.07 "HgN/A
3:20 AM54 °FCool.5 mph94%30.07 "Hg1 mi
2:50 AM54 °FCool.5 mph94%30.09 "Hg0 mi
2:20 AM54 °FCool.6 mph94%30.09 "Hg1 mi
1:50 AM54 °FCool.5 mph94%30.09 "Hg3 mi
1:20 AM54 °FCool.3 mph94%30.12 "Hg5 mi
12:50 AM55 °FCool.3 mph94%30.12 "Hg2 mi
12:20 AM55 °FCool.3 mph94%30.12 "Hg6 mi
Weather by CustomWeather, © 2016

See weather overviewHow to use our weather pages